Regional Weather Roundup
Issued by NWS

Home | Current Version | Previous Version | Text Only | Print | Product List | Glossary On
Versions: 1 2 3 4 5 6 7 8 9 10 11 12 13 14 15 16 17 18 19 20 21 22 23 24 25 26 27 28 29 30 31 32 33 34 35 36 37 38 39 40 41 42 43 44 45 46 47 48 49 50
000
ASHW40 PHFO 190230
RWRHI

WEATHER ROUNDUP FOR HAWAII
NATIONAL WEATHER SERVICE HONOLULU HI
400 PM HST THU DEC 18 2014

THIS IS AN AUTOMATED REPORT THAT HAS NOT BEEN QUALITY CONTROLLED.

NOTE..."FAIR" INDICATES FEW OR NO CLOUDS BELOW 12,000 FEET WITH NO
SIGNIFICANT WEATHER AND/OR OBSTRUCTIONS TO VISIBILITY.

* - THESE SITES REPORT LIMITED FIELDS

HIZ001>004-190300-
KAUAI-NIIHAU-

CITY           SKY/WX    TMP DP  RH WIND       PRES   REMARKS
LIHUE APT      LGT RAIN  74  69  85 NE13      30.10R
PORT ALLEN*      N/A     75 N/A N/A E22G29      N/A
POIPU*           N/A     75 N/A N/A NE9G21      N/A
PRINCEVILLE*     N/A     73 N/A N/A MISG        N/A
KOKOLE POINT*    N/A     81 N/A N/A MISG        N/A
MOLOAA DAIRY*  NOT AVBL
WAIMEA HTS*    NOT AVBL
PUU OPAE*      NOT AVBL
PUU LUA*       NOT AVBL
MAKAHA RIDGE*  NOT AVBL
$$

HIZ005>011-190300-
OAHU-

CITY           SKY/WX    TMP DP  RH WIND       PRES   REMARKS
HONOLULU       CLOUDY    80  67  64 NE21      30.04F
KALAELOA       CLOUDY    79  66  64 VRB7      30.05F
KANEOHE MCB    CLOUDY    77  68  73 E15G22    30.07F
WHEELER FIELD  PTSUNNY   73  66  78 VRB6G16   30.06F
BELLOWS*         N/A    N/A N/A N/A NE22G28     N/A
KAHUKU*          N/A    N/A N/A N/A NE13G24     N/A
WHEELER*       NOT AVBL
WAIANAE HARBOR NOT AVBL
DILLINGHAM*      N/A     75  68  78 NE5G12      N/A
KAHUKU TRN*      N/A     72  68  88 E13G26      N/A
KAWAILOA*        N/A     70  66  88 E9G20       N/A
KII*             N/A     75  72  88 E21G29      N/A
MAKUA RANGE*     N/A     77  66  69 NE9G18      N/A
OAHU FOREST NW NOT AVBL
SCHOFIELD BRK*   N/A     70  66  88 MISG        N/A
SCHOFIELD S*   NOT AVBL
WAIANAE VLY*   NOT AVBL
KUAOKALA*      NOT AVBL
HONOULIUULI*   NOT AVBL
MOKUOLOE IS*     N/A    N/A N/A N/A MISG        N/A
PALEHUA*       NOT AVBL
WAIAWA PHB*    NOT AVBL
$$

HIZ012>013-190300-
MOLOKAI-

CITY           SKY/WX    TMP DP  RH WIND       PRES   REMARKS
MOLOKAI AIRPT  MOSUNNY   75  68  78 NE18G30   30.05S
KALAUPAPA      NOT AVBL
MAKAPULAPAI*   NOT AVBL
MOLOKAI 1*     NOT AVBL
PUU ALII*        N/A     59  59  99 E3G12       N/A
$$

HIZ016-190300-
KAHOOLAWE-

CITY           SKY/WX    TMP DP  RH WIND       PRES   REMARKS
KAHOOLAWE*     NOT AVBL
HAKIOAWA*        N/A     73  66  78 MISG      30.47R
HONOKANAIA*      N/A     80  64  58 NE18G33   30.04S
KANELOA*         N/A     75  66  73 E26G41    29.25F
KEALIALALO*    NOT AVBL
LUA MAKIKA*    NOT AVBL
$$

HIZ014>015-190300-
LANAI-

CITY           SKY/WX    TMP DP  RH WIND       PRES   REMARKS
LANAI CITY     PTSUNNY   73  68  83 N9        30.09S
LANAI 1*       NOT AVBL
$$

HIZ017>028-190300-
MAUI-

CITY           SKY/WX    TMP DP  RH WIND       PRES   REMARKS
KAHULUI        MOSUNNY   78  67  68 NE21G35   30.03S
KAPALUA-W MAUI LGT RAIN  72  68  88 NE14G20   30.06R
HANA AIRPORT   CLOUDY    73  68  83 E2        30.11S
HANA*            N/A     75 N/A N/A E6G12       N/A
HALEAKALA SUMM   N/A     52  12  20 E29         N/A
MAALAEA BAY*   NOT AVBL
HALEAKALA*     NOT AVBL
KAUPO GAP*     NOT AVBL
KULA 1*          N/A     65  55  69 NW3G9       N/A
$$

HIZ023>026-190300-
BIG ISLAND OF HAWAII COAST AND LOWER SLOPES-

CITY           SKY/WX    TMP DP  RH WIND       PRES   REMARKS
KAILUA KONA    PTSUNNY   79  69  71 W7        30.00S
HILO           MOSUNNY   79  67  66 E9        30.06F
HONOKAA*       NOT AVBL
KAWAIHAE MWT*    N/A     79 N/A N/A W9          N/A
KAWAIHAE*        N/A     79 N/A N/A W7          N/A
SOUTH POINT*     N/A     73 N/A N/A NE23G31     N/A
UPOLU AIRPORT*   N/A    N/A N/A N/A NE20G29     N/A
KAMUELA*       LGT RAIN  64  63  94 NE26      30.12F
HAKALAU*         N/A    N/A N/A N/A SW7G13      N/A
KALOKO-HONOKO*   N/A     81  70  69 W7          N/A
PALI 2*          N/A     73  57  56 N18G28      N/A
KEALAKOMO*       N/A     54  36  50 N18G29      N/A
KAUPULEHU*     NOT AVBL
KAPAPALA*        N/A     79  60  51 E6G22       N/A
LOWER KAHUKU*    N/A     68  61  77 E3G18       N/A
PUHE CS*       NOT AVBL
PUHO CS*         N/A     81  67  61 W3          N/A
PTA KEAMUKU*     N/A     64  61  88 CALM        N/A
WAIKOLOA*      NOT AVBL
$$

HIZ027>028-190300-
BIG ISLAND OF HAWAII INTERIOR AND SUMMMITS-

CITY           SKY/WX    TMP DP  RH WIND       PRES   REMARKS
BRADSHAW FIELD MOSUNNY   69  19  14 S22G33    30.32R
MK VISITOR CEN NOT AVBL
MAUNA KEA*       N/A     37  -9  13 SE39        N/A  WCI  23
MAUNA LOA*       N/A     52  -8   8 MISG        N/A
MAUNA LOA 1*   NOT AVBL
PTA KIPUKA*      N/A     66  57  72 NW7G15      N/A
PTA RANGE 17*    N/A     63  55  77 NW6G23      N/A
PTA WEST*        N/A     64  59  82 NW9G15      N/A
NENE CABIN*      N/A    N/A N/A N/A E8G14       N/A
AHUMOA*        NOT AVBL
PTA PORTABLE*  NOT AVBL
PUU MALI*      NOT AVBL
$$

HIC003-190300-
NORTHWEST ISLANDS-

CITY           SKY/WX    TMP DP  RH WIND       PRES   REMARKS
MIDWAY ISLAND  MOSUNNY   79  70  73 SW13      30.01F
MIDWAY NOS*    NOT AVBL
FRENCH FRIGATE NOT AVBL
$$

PHZ110>124-180-190300-
BUOY REPORTS

STATION/POSITION TIME  TEMP    WIND        PRES    WAVE   SWELL
                       AIR SEA DIR/SP/G            HT/PER HT/DIR
                 (UTC) (F)     (DEG/KT/KT) (MB)    (FT/S) (FT/D)
BUOY 51001       NOT AVBL
BUOY 51101       0200   76 77   70/ 16/ 19 1019.8R  10/14   8/320
BUOY 51100       NOT AVBL
BUOY 51003       0200   78 79   70/ 14/ 17 1016.1S   8/ 8   7
BUOY 51004       0148   77 78   70/ 19/ 23 1015.1F   9/ 8   5/100
BARBERS PT BUOY  NOT AVBL
WAIMEA BAY BUOY  0200      78                N/A     7/17
KAILUA BAY BUOY  0200      77                N/A     7/ 8   2/ 10
LANAI BUOY       0200      78                N/A     2/13   2/230
BARBERS PT 2     0200      78                N/A     4/ 8   2/300
PAUWELA MAUI     0200      77                N/A     7/13   3/340
HILO             0200      78                N/A     7/ 8   2/ 20
KANEOHE BAY BUOY 0200      77                N/A     6/ 8   2
HANALEI KAUAI    NOT AVBL
KAHULUI HARBOR   0200   74 76   50/ 21/ 29 1017.1R
HONOLULU HARBOR  0200   78      50/  5/ 14 1017.6R
KILO NALU        NOT AVBL
HILO HARBOR      0200   77      50/ 10/ 12 1017.6F
MOKUOLOE         0200   76 75  100/ 16/ 21 1018.5F
NAWILIWILI       0200      77                N/A
WHOTS BUOY       NOT AVBL
BUOY 51028       NOT AVBL
$$

......................KEY........................................
  SKY/WX - SKY CONDITIONS/PRESENT WEATHER
  TMP    - TEMPERATURE IN FAHRENHEIT
  DWPT   - DEWPOINT IN FAHRENHEIT
  RH     - RELATIVE HUMIDITY IN PERCENT
  WIND   - DIRECTION AND SPEED /MPH FOR ISLANDS...KTS FOR BUOYS/
  PRES   - MEAN SEA LEVEL PRESSURE IN INCHES OF HG
  VSB    - VISIBILITY IN MILES
  HX     - HEAT INDEX
  WCI    - WIND CHILL INDEX
  VRB    - VARIABLE WIND DIRECTION
  N/A    - NOT AVAILABLE


USA.gov is the U.S. government's official web portal to all federal, state and local government web resources and services.